Location: Stockholm
(59.3330°N, 18.0500°E)
Time: 14:30:21
(UTC+01:00)

Envisat - Pass Details

Date: 29 November 2022
Orbit: 763 x 765 km, 98.2° (Epoch: 29 January)

Event Time Altitude Azimuth Distance (km) Brightness Sun altitude
Rises 04:25:19 0° 17° (NNE) 3,250 6.5 -27.3°
Reaches altitude 10° 04:27:38 10° 18° (NNE) 2,319 5.7 -27.0°
Maximum altitude 04:32:46 84° 107° (ESE) 780 2.9 -26.4°
Enters shadow 04:33:46 59° 186° (S) 888 3.2 -26.2°
